{"data":{"norad_id":60478,"intl_designator":"2024-149L","name":"WREN-1","alt_names":[],"object_type":"PAYLOAD","status":"ACTIVE","operator":null,"country":"HUN","launch_date":"2024-08-16","launch_site_code":"AFWTR","launch_vehicle":null,"mission":null,"orbit_class":"UNKNOWN","rcs_meters":null,"size_class":null,"mass_kg":null,"dimensions":null,"purposes":[],"wikipedia_slug":null,"has_3d_model":false,"image_url":null,"decayed_at":null,"tle_current":{"epoch":"2026-05-25T05:07:13.835712Z","epoch_age_seconds":60123,"freshness":"FRESH","line1":"1 60478U 24149L   26145.21335458  .00019940  00000+0  49239-3 0  9996","line2":"2 60478  97.3765 229.1020 0003460   4.7702 355.3577 15.40535339 98788","mean_motion":15.40535339,"eccentricity":0.000346,"inclination_deg":97.3765,"raan_deg":229.102,"arg_perigee_deg":4.7702,"mean_anomaly_deg":355.3577,"bstar":0.00049239,"rev_number":9878,"period_min":93.473999819747,"perigee_km":442.16762505166,"apogee_km":446.88890941659,"semimajor_km":6822.6652672341,"source":"CELESTRAK","updated_at":"2026-05-25T13:38:02.110405Z"}}}